Time,TemperatureF,DewpointF,PressureIn,WindDirection,WindDirectionDegrees,WindSpeedMPH,WindSpeedGustMPH,Humidity,HourlyPrecipIn,Conditions,Clouds,dailyrainin,SoftwareType,DateUTC
2013-01-18 00:02:00,22.0,9.0,30.31,SE,134,0.0,0.0,57,0.00,,,0.00,,2013-01-18 06:02:00,
2013-01-18 00:12:00,22.0,9.0,30.31,SE,134,0.0,0.0,57,0.00,,,0.00,,2013-01-18 06:12:00,
2013-01-18 00:22:00,22.0,10.0,30.31,SSE,150,0.0,0.0,58,0.00,,,0.00,,2013-01-18 06:22:00,
2013-01-18 00:32:00,22.0,10.0,30.31,SE,132,7.0,7.0,58,0.00,,,0.00,,2013-01-18 06:32:00,
2013-01-18 00:43:00,22.0,10.0,30.31,SE,132,7.0,7.0,58,0.00,,,0.00,,2013-01-18 06:43:00,
2013-01-18 00:52:00,22.0,10.0,30.28,ESE,117,0.0,0.0,58,0.00,,,0.00,,2013-01-18 06:52:00,
2013-01-18 01:02:00,22.0,10.0,30.28,SSE,149,0.0,6.0,58,0.00,,,0.00,,2013-01-18 07:02:00,
2013-01-18 01:12:00,22.0,10.0,30.28,SSE,149,0.0,6.0,58,0.00,,,0.00,,2013-01-18 07:12:00,
2013-01-18 01:22:00,22.0,10.0,30.28,ESE,122,5.0,5.0,59,0.00,,,0.00,,2013-01-18 07:22:00,
2013-01-18 01:32:00,22.0,10.0,30.28,SE,143,8.0,8.0,60,0.00,,,0.00,,2013-01-18 07:32:00,
2013-01-18 01:42:00,22.0,10.0,30.28,SE,143,8.0,8.0,60,0.00,,,0.00,,2013-01-18 07:42:00,
2013-01-18 01:52:00,22.0,11.0,30.28,South,173,0.0,0.0,61,0.00,,,0.00,,2013-01-18 07:52:00,
2013-01-18 02:02:00,22.0,11.0,30.25,SE,144,0.0,0.0,61,0.00,,,0.00,,2013-01-18 08:02:00,
2013-01-18 02:12:00,22.0,11.0,30.25,SE,144,0.0,0.0,61,0.00,,,0.00,,2013-01-18 08:12:00,
2013-01-18 02:22:00,22.0,12.0,30.25,SSE,159,5.0,6.0,64,0.00,,,0.00,,2013-01-18 08:22:00,
2013-01-18 02:32:00,22.0,12.0,30.25,SSE,157,6.0,6.0,65,0.00,,,0.00,,2013-01-18 08:32:00,
2013-01-18 02:42:00,22.0,12.0,30.25,SSE,157,6.0,6.0,65,0.00,,,0.00,,2013-01-18 08:42:00,
2013-01-18 02:53:00,23.0,13.0,30.22,South,170,8.0,8.0,64,0.00,,,0.00,,2013-01-18 08:53:00,
2013-01-18 03:02:00,23.0,12.0,30.22,SSE,153,6.0,6.0,62,0.00,,,0.00,,2013-01-18 09:02:00,
2013-01-18 03:12:00,23.0,12.0,30.22,SSE,153,6.0,6.0,62,0.00,,,0.00,,2013-01-18 09:12:00,
2013-01-18 03:22:00,24.0,13.0,30.19,SSE,162,5.0,5.0,61,0.00,,,0.00,,2013-01-18 09:22:00,
2013-01-18 03:32:00,24.0,12.0,30.19,SSE,153,6.0,14.0,60,0.00,,,0.00,,2013-01-18 09:32:00,
2013-01-18 03:42:00,24.0,12.0,30.19,SSE,153,6.0,14.0,60,0.00,,,0.00,,2013-01-18 09:42:00,
2013-01-18 03:52:00,24.0,12.0,30.19,SSE,162,10.0,10.0,60,0.00,,,0.00,,2013-01-18 09:52:00,
2013-01-18 04:02:00,24.0,12.0,30.16,SE,134,4.0,4.0,60,0.00,,,0.00,,2013-01-18 10:02:00,
2013-01-18 04:12:00,24.0,12.0,30.16,SE,134,4.0,4.0,60,0.00,,,0.00,,2013-01-18 10:12:00,
2013-01-18 04:22:00,25.0,13.0,30.16,South,178,9.0,13.0,60,0.00,,,0.00,,2013-01-18 10:22:00,
2013-01-18 04:32:00,25.0,12.0,30.16,SSE,155,5.0,13.0,58,0.00,,,0.00,,2013-01-18 10:32:00,
2013-01-18 04:42:00,25.0,12.0,30.16,SSE,155,5.0,13.0,58,0.00,,,0.00,,2013-01-18 10:42:00,
2013-01-18 04:52:00,25.0,13.0,30.14,SE,136,12.0,12.0,60,0.00,,,0.00,,2013-01-18 10:52:00,
2013-01-18 05:02:00,25.0,13.0,30.14,SE,139,6.0,9.0,61,0.00,,,0.00,,2013-01-18 11:02:00,
2013-01-18 05:12:00,25.0,13.0,30.14,SE,139,6.0,9.0,61,0.00,,,0.00,,2013-01-18 11:12:00,
2013-01-18 05:22:00,25.0,14.0,30.11,SSE,154,6.0,12.0,62,0.00,,,0.00,,2013-01-18 11:22:00,
2013-01-18 05:32:00,25.0,14.0,30.11,SSE,165,5.0,5.0,63,0.00,,,0.00,,2013-01-18 11:32:00,
2013-01-18 05:42:00,25.0,14.0,30.11,SSE,165,5.0,5.0,63,0.00,,,0.00,,2013-01-18 11:42:00,
2013-01-18 05:53:00,26.0,15.0,30.08,SSE,154,11.0,11.0,63,0.00,,,0.00,,2013-01-18 11:53:00,
2013-01-18 06:02:00,26.0,16.0,30.08,SSW,192,13.0,13.0,64,0.00,,,0.00,,2013-01-18 12:02:00,
2013-01-18 06:12:00,26.0,16.0,30.08,SSW,192,13.0,13.0,64,0.00,,,0.00,,2013-01-18 12:12:00,
2013-01-18 06:22:00,26.0,16.0,30.08,SE,143,0.0,0.0,64,0.00,,,0.00,,2013-01-18 12:22:00,
2013-01-18 06:33:00,27.0,16.0,30.05,SSE,149,9.0,14.0,64,0.00,,,0.00,,2013-01-18 12:33:00,
2013-01-18 06:42:00,27.0,16.0,30.05,SSE,149,9.0,14.0,64,0.00,,,0.00,,2013-01-18 12:42:00,
2013-01-18 06:53:00,27.0,16.0,30.02,SSE,160,6.0,10.0,63,0.00,,,0.00,,2013-01-18 12:53:00,
2013-01-18 07:03:00,27.0,16.0,30.02,SW,214,6.0,13.0,64,0.00,,,0.00,,2013-01-18 13:03:00,
2013-01-18 07:12:00,27.0,16.0,30.02,SW,214,6.0,13.0,64,0.00,,,0.00,,2013-01-18 13:12:00,
2013-01-18 07:23:00,27.0,16.0,30.02,SSE,167,6.0,8.0,64,0.00,,,0.00,,2013-01-18 13:23:00,
2013-01-18 07:33:00,27.0,16.0,29.99,SW,232,4.0,9.0,64,0.00,,,0.00,,2013-01-18 13:33:00,
2013-01-18 07:43:00,27.0,16.0,29.99,SW,232,4.0,9.0,64,0.00,,,0.00,,2013-01-18 13:43:00,
2013-01-18 07:53:00,27.0,17.0,29.99,South,188,4.0,10.0,66,0.00,,,0.00,,2013-01-18 13:53:00,
2013-01-18 08:03:00,27.0,17.0,29.99,SSW,194,6.0,9.0,66,0.00,,,0.00,,2013-01-18 14:03:00,
2013-01-18 08:12:00,27.0,17.0,29.99,SSW,194,6.0,9.0,66,0.00,,,0.00,,2013-01-18 14:12:00,
2013-01-18 08:22:00,28.0,19.0,29.96,SW,218,8.0,9.0,68,0.00,,,0.00,,2013-01-18 14:22:00,
2013-01-18 08:33:00,28.0,19.0,29.96,SSE,154,9.0,13.0,68,0.00,,,0.00,,2013-01-18 14:33:00,
2013-01-18 08:42:00,28.0,19.0,29.96,SSE,154,9.0,13.0,68,0.00,,,0.00,,2013-01-18 14:42:00,
2013-01-18 08:53:00,29.0,20.0,29.99,South,190,5.0,14.0,68,0.00,,,0.00,,2013-01-18 14:53:00,
2013-01-18 09:03:00,30.0,20.0,29.96,SW,218,0.0,13.0,66,0.00,,,0.00,,2013-01-18 15:03:00,
2013-01-18 09:12:00,30.0,20.0,29.96,SW,218,0.0,13.0,66,0.00,,,0.00,,2013-01-18 15:12:00,
2013-01-18 09:23:00,33.0,20.0,29.96,SSW,193,6.0,6.0,59,0.00,,,0.00,,2013-01-18 15:23:00,
2013-01-18 09:33:00,34.0,20.0,29.96,SSW,205,6.0,16.0,56,0.00,,,0.00,,2013-01-18 15:33:00,
2013-01-18 09:43:00,34.0,20.0,29.96,SSW,205,6.0,16.0,56,0.00,,,0.00,,2013-01-18 15:43:00,
2013-01-18 09:53:00,35.0,20.0,29.96,SSW,210,14.0,19.0,53,0.00,,,0.00,,2013-01-18 15:53:00,
2013-01-18 10:03:00,36.0,20.0,29.96,SW,231,20.0,20.0,51,0.00,,,0.00,,2013-01-18 16:03:00,
2013-01-18 10:12:00,36.0,20.0,29.96,SW,231,20.0,20.0,51,0.00,,,0.00,,2013-01-18 16:12:00,
2013-01-18 10:23:00,37.0,20.0,29.96,SW,231,14.0,19.0,50,0.00,,,0.00,,2013-01-18 16:23:00,
2013-01-18 10:33:00,37.0,20.0,29.93,SSW,195,4.0,13.0,50,0.00,,,0.00,,2013-01-18 16:33:00,
2013-01-18 10:42:00,37.0,20.0,29.93,SSW,195,4.0,13.0,50,0.00,,,0.00,,2013-01-18 16:42:00,
2013-01-18 10:53:00,40.0,22.0,29.93,SW,225,12.0,16.0,48,0.00,,,0.00,,2013-01-18 16:53:00,
2013-01-18 11:03:00,40.0,21.0,29.93,SW,226,10.0,16.0,47,0.00,,,0.00,,2013-01-18 17:03:00,
2013-01-18 11:13:00,40.0,21.0,29.93,SW,226,10.0,16.0,47,0.00,,,0.00,,2013-01-18 17:13:00,
2013-01-18 11:23:00,40.0,21.0,29.90,South,179,10.0,16.0,46,0.00,,,0.00,,2013-01-18 17:23:00,
2013-01-18 11:33:00,41.0,22.0,29.90,SW,222,10.0,19.0,46,0.00,,,0.00,,2013-01-18 17:33:00,
2013-01-18 11:42:00,41.0,22.0,29.90,SW,222,10.0,19.0,46,0.00,,,0.00,,2013-01-18 17:42:00,
2013-01-18 11:53:00,42.0,22.0,29.90,SW,235,13.0,13.0,45,0.00,,,0.00,,2013-01-18 17:53:00,
2013-01-18 12:03:00,42.0,22.0,29.87,SSW,194,8.0,16.0,45,0.00,,,0.00,,2013-01-18 18:03:00,
2013-01-18 12:12:00,42.0,22.0,29.87,SSW,194,8.0,16.0,45,0.00,,,0.00,,2013-01-18 18:12:00,
2013-01-18 12:23:00,43.0,22.0,29.87,WSW,238,9.0,21.0,43,0.00,,,0.00,,2013-01-18 18:23:00,
2013-01-18 12:33:00,43.0,22.0,29.84,WSW,238,12.0,17.0,43,0.00,,,0.00,,2013-01-18 18:33:00,
2013-01-18 12:43:00,43.0,22.0,29.84,WSW,238,12.0,17.0,43,0.00,,,0.00,,2013-01-18 18:43:00,
2013-01-18 12:53:00,44.0,22.0,29.84,SW,215,9.0,17.0,42,0.00,,,0.00,,2013-01-18 18:53:00,
2013-01-18 13:03:00,44.0,23.0,29.84,SW,231,9.0,13.0,43,0.00,,,0.00,,2013-01-18 19:03:00,
2013-01-18 13:12:00,44.0,23.0,29.84,SW,231,9.0,13.0,43,0.00,,,0.00,,2013-01-18 19:12:00,
2013-01-18 13:22:00,44.0,23.0,29.81,SSW,207,16.0,16.0,43,0.00,,,0.00,,2013-01-18 19:22:00,
2013-01-18 13:33:00,44.0,23.0,29.81,WSW,239,17.0,20.0,43,0.00,,,0.00,,2013-01-18 19:33:00,
2013-01-18 13:42:00,44.0,23.0,29.81,WSW,239,17.0,20.0,43,0.00,,,0.00,,2013-01-18 19:42:00,
2013-01-18 13:53:00,45.0,23.0,29.81,SW,222,27.0,27.0,42,0.00,,,0.00,,2013-01-18 19:53:00,
2013-01-18 14:03:00,45.0,23.0,29.81,SW,215,6.0,20.0,42,0.00,,,0.00,,2013-01-18 20:03:00,
2013-01-18 14:12:00,45.0,23.0,29.81,SW,215,6.0,20.0,42,0.00,,,0.00,,2013-01-18 20:12:00,
2013-01-18 14:23:00,45.0,24.0,29.81,South,190,6.0,19.0,43,0.00,,,0.00,,2013-01-18 20:23:00,
2013-01-18 14:33:00,45.0,24.0,29.81,SSW,210,6.0,23.0,43,0.00,,,0.00,,2013-01-18 20:33:00,
2013-01-18 14:42:00,45.0,24.0,29.81,SSW,210,6.0,23.0,43,0.00,,,0.00,,2013-01-18 20:42:00,
2013-01-18 14:53:00,46.0,25.0,29.81,West,260,13.0,18.0,43,0.00,,,0.00,,2013-01-18 20:53:00,
2013-01-18 15:03:00,46.0,25.0,29.78,WSW,252,20.0,21.0,43,0.00,,,0.00,,2013-01-18 21:03:00,
2013-01-18 15:12:00,46.0,25.0,29.78,WSW,252,20.0,21.0,43,0.00,,,0.00,,2013-01-18 21:12:00,
2013-01-18 15:23:00,45.0,24.0,29.78,SW,232,8.0,9.0,44,0.00,,,0.00,,2013-01-18 21:23:00,
2013-01-18 15:33:00,45.0,24.0,29.78,South,179,6.0,13.0,44,0.00,,,0.00,,2013-01-18 21:33:00,
2013-01-18 15:42:00,45.0,24.0,29.78,South,179,6.0,13.0,44,0.00,,,0.00,,2013-01-18 21:42:00,
2013-01-18 15:53:00,45.0,24.0,29.78,SSW,198,6.0,18.0,44,0.00,,,0.00,,2013-01-18 21:53:00,
2013-01-18 16:03:00,45.0,24.0,29.78,West,279,16.0,16.0,44,0.00,,,0.00,,2013-01-18 22:03:00,
2013-01-18 16:12:00,45.0,24.0,29.78,West,279,16.0,16.0,44,0.00,,,0.00,,2013-01-18 22:12:00,
2013-01-18 16:22:00,44.0,25.0,29.78,West,259,8.0,11.0,46,0.00,,,0.00,,2013-01-18 22:22:00,
2013-01-18 16:32:00,43.0,24.0,29.78,SSW,212,8.0,13.0,47,0.00,,,0.00,,2013-01-18 22:32:00,
2013-01-18 16:42:00,43.0,24.0,29.78,SSW,212,8.0,13.0,47,0.00,,,0.00,,2013-01-18 22:42:00,
2013-01-18 16:53:00,43.0,25.0,29.78,WSW,256,7.0,15.0,48,0.00,,,0.00,,2013-01-18 22:53:00,
2013-01-18 17:02:00,42.0,24.0,29.81,WSW,239,5.0,11.0,49,0.00,,,0.00,,2013-01-18 23:02:00,
2013-01-18 17:12:00,42.0,24.0,29.81,WSW,239,5.0,11.0,49,0.00,,,0.00,,2013-01-18 23:12:00,
2013-01-18 17:22:00,41.0,24.0,29.81,WSW,245,4.0,6.0,51,0.00,,,0.00,,2013-01-18 23:22:00,
2013-01-18 17:32:00,40.0,24.0,29.81,WSW,253,5.0,13.0,53,0.00,,,0.00,,2013-01-18 23:32:00,
2013-01-18 17:42:00,40.0,24.0,29.81,WSW,253,5.0,13.0,53,0.00,,,0.00,,2013-01-18 23:42:00,
2013-01-18 17:53:00,39.0,24.0,29.81,SW,229,6.0,6.0,55,0.00,,,0.00,,2013-01-18 23:53:00,
2013-01-18 18:02:00,38.0,24.0,29.81,SW,234,6.0,6.0,57,0.00,,,0.00,,2013-01-19 00:02:00,
2013-01-18 18:12:00,38.0,24.0,29.81,SW,234,6.0,6.0,57,0.00,,,0.00,,2013-01-19 00:12:00,
2013-01-18 18:22:00,37.0,24.0,29.81,SW,225,4.0,6.0,60,0.00,,,0.00,,2013-01-19 00:22:00,
2013-01-18 18:32:00,37.0,25.0,29.84,West,271,0.0,8.0,61,0.00,,,0.00,,2013-01-19 00:32:00,
2013-01-18 18:42:00,37.0,25.0,29.84,West,271,0.0,8.0,61,0.00,,,0.00,,2013-01-19 00:42:00,
2013-01-18 18:53:00,37.0,26.0,29.81,SW,218,8.0,13.0,63,0.00,,,0.00,,2013-01-19 00:53:00,
2013-01-18 19:02:00,36.0,25.0,29.84,SW,225,5.0,6.0,63,0.00,,,0.00,,2013-01-19 01:02:00,
2013-01-18 19:12:00,36.0,25.0,29.84,SW,225,5.0,6.0,63,0.00,,,0.00,,2013-01-19 01:12:00,
2013-01-18 19:22:00,36.0,25.0,29.81,WSW,253,0.0,0.0,65,0.00,,,0.00,,2013-01-19 01:22:00,
2013-01-18 19:32:00,36.0,26.0,29.81,WSW,243,0.0,8.0,66,0.00,,,0.00,,2013-01-19 01:32:00,
2013-01-18 19:42:00,36.0,26.0,29.81,WSW,243,0.0,8.0,66,0.00,,,0.00,,2013-01-19 01:42:00,
2013-01-18 19:53:00,36.0,26.0,29.84,WSW,248,0.0,6.0,67,0.00,,,0.00,,2013-01-19 01:53:00,
2013-01-18 20:02:00,36.0,26.0,29.84,West,262,4.0,6.0,68,0.00,,,0.00,,2013-01-19 02:02:00,
2013-01-18 20:12:00,36.0,26.0,29.84,West,262,4.0,6.0,68,0.00,,,0.00,,2013-01-19 02:12:00,
2013-01-18 20:22:00,35.0,26.0,29.84,SW,232,0.0,0.0,70,0.00,,,0.00,,2013-01-19 02:22:00,
2013-01-18 20:33:00,35.0,26.0,29.84,SW,232,0.0,0.0,70,0.00,,,0.00,,2013-01-19 02:33:00,
2013-01-18 20:42:00,35.0,26.0,29.84,SW,232,0.0,0.0,70,0.00,,,0.00,,2013-01-19 02:42:00,
2013-01-18 20:53:00,35.0,27.0,29.84,WSW,252,0.0,0.0,72,0.00,,,0.00,,2013-01-19 02:53:00,
2013-01-18 21:02:00,35.0,27.0,29.84,West,260,0.0,0.0,71,0.00,,,0.00,,2013-01-19 03:02:00,
2013-01-18 21:12:00,35.0,27.0,29.84,West,260,0.0,0.0,71,0.00,,,0.00,,2013-01-19 03:12:00,
2013-01-18 21:22:00,34.0,26.0,29.84,WSW,246,0.0,0.0,73,0.00,,,0.00,,2013-01-19 03:22:00,
2013-01-18 21:32:00,34.0,27.0,29.81,WSW,244,0.0,0.0,74,0.00,,,0.00,,2013-01-19 03:32:00,
2013-01-18 21:43:00,34.0,27.0,29.81,WSW,244,0.0,0.0,74,0.00,,,0.00,,2013-01-19 03:43:00,
2013-01-18 21:52:00,33.0,26.0,29.84,WSW,240,0.0,0.0,76,0.00,,,0.00,,2013-01-19 03:52:00,
2013-01-18 22:02:00,33.0,27.0,29.84,WSW,243,0.0,0.0,78,0.00,,,0.00,,2013-01-19 04:02:00,
2013-01-18 22:12:00,33.0,27.0,29.84,WSW,243,0.0,0.0,78,0.00,,,0.00,,2013-01-19 04:12:00,
2013-01-18 22:22:00,33.0,27.0,29.84,SSW,200,0.0,0.0,78,0.00,,,0.00,,2013-01-19 04:22:00,
2013-01-18 22:32:00,33.0,27.0,29.84,WSW,246,0.0,0.0,78,0.00,,,0.00,,2013-01-19 04:32:00,
2013-01-18 22:42:00,33.0,27.0,29.84,WSW,246,0.0,0.0,78,0.00,,,0.00,,2013-01-19 04:42:00,
2013-01-18 22:53:00,32.0,26.0,29.84,SW,228,0.0,0.0,78,0.00,,,0.00,,2013-01-19 04:53:00,
2013-01-18 23:03:00,32.0,26.0,29.84,WSW,237,0.0,0.0,78,0.00,,,0.00,,2013-01-19 05:03:00,
2013-01-18 23:12:00,32.0,26.0,29.84,WSW,237,0.0,0.0,78,0.00,,,0.00,,2013-01-19 05:12:00,
2013-01-18 23:22:00,32.0,26.0,29.84,SSW,202,0.0,0.0,78,0.00,,,0.00,,2013-01-19 05:22:00,
2013-01-18 23:32:00,32.0,26.0,29.84,SW,225,0.0,0.0,79,0.00,,,0.00,,2013-01-19 05:32:00,
2013-01-18 23:42:00,32.0,26.0,29.84,SW,225,0.0,0.0,79,0.00,,,0.00,,2013-01-19 05:42:00,
2013-01-18 23:53:00,33.0,28.0,29.84,SW,233,0.0,0.0,80,0.00,,,0.00,,2013-01-19 05:53:00,